Baudette, MN

2:03 PM CST on February 25, 2017 (GMT -0600)
Baudette International

Weather History for KBDE - November, 2013

Change the Weather History Date:

Friday, November 15, 2013

  Actual Average Record
Temperature  
Mean Temperature 34 °F -  
Max Temperature 43 °F 36 °F 63 °F (1953)
Min Temperature 26 °F 18 °F -17 °F (1932)
Degree Days  
Heating Degree Days 30    
Moisture  
Dew Point 30 °F    
Average Humidity 84    
Maximum Humidity 96    
Minimum Humidity 60    
Precipitation  
Precipitation 0.00 in - - ()
Sea Level Pressure  
Sea Level Pressure 29.66 in    
Wind  
Wind Speed 6 mph (SSW)    
Max Wind Speed 14 mph    
Max Gust Speed 18 mph    
Visibility 10 miles    
Events      
Averages and records for this station are not official NWS values.
T = Trace of Precipitation, MM = Missing Value Source: NWS Daily Summary

Daily Weather History Graph

Daily Weather History Graph

Search for Another Location

Airport or City:

Trip Planner

Search our weather history database for the weather conditions in past years. The results will help you decide how hot, cold, wet, or windy it might be!

Date:

Astronomy

Nov. 15, 2013 Rise Set
Actual Time 7:27 AM CST 4:38 PM CST
Civil Twilight 6:53 AM CST 5:12 PM CST
Nautical Twilight 6:14 AM CST 5:50 PM CST
Astronomical Twilight 5:37 AM CST 6:28 PM CST
Moon 3:42 PM CST (11/15) 5:16 AM CST (11/15)
Length of Visible Light 10h 19m
Length of Day
9h 10m
Waxing Gibbous, 96% of the Moon is Illuminated
Nov 15
Waxing Gibbous
Nov 17
Full
Nov 25
Last Quarter
Dec 2
New
Dec 9
First Quarter

Hourly Weather History & Observations

Time (CST) Temp. Windchill Dew Point Humidity Pressure Visibility Wind Dir Wind Speed Gust Speed Precip Events Conditions
12:53 AM 35.1 °F 30.1 °F 30.9 °F 85% 29.73 in 10.0 mi WNW 5.8 mph - N/A   Overcast
1:53 AM 34.0 °F 31.0 °F 30.0 °F 85% 29.74 in 10.0 mi Variable 3.5 mph - N/A   Overcast
2:03 AM 34.0 °F 31.0 °F 30.0 °F 85% 29.70 in 10.0 mi Variable 3.5 mph - N/A   Overcast
2:53 AM 32.0 °F 28.7 °F 30.0 °F 92% 29.75 in 10.0 mi Variable 3.5 mph - N/A   Mostly Cloudy
3:31 AM 30.9 °F 27.5 °F 28.9 °F 92% 29.71 in 10.0 mi West 3.5 mph - N/A   Scattered Clouds
3:53 AM 30.0 °F - 28.0 °F 92% 29.75 in 10.0 mi Calm Calm - N/A   Clear
4:53 AM 28.0 °F 24.2 °F 27.0 °F 96% 29.76 in 10.0 mi WSW 3.5 mph - N/A   Scattered Clouds
5:03 AM 28.9 °F 23.9 °F 27.0 °F 92% 29.71 in 10.0 mi SW 4.6 mph - N/A   Mostly Cloudy
5:53 AM 28.0 °F 24.2 °F 27.0 °F 96% 29.74 in 10.0 mi South 3.5 mph - N/A   Mostly Cloudy
6:03 AM 27.0 °F 20.5 °F 25.0 °F 92% 29.69 in 10.0 mi South 5.8 mph - N/A   Scattered Clouds
6:45 AM 27.0 °F 21.6 °F 26.1 °F 96% 29.72 in 10.0 mi SW 4.6 mph - N/A   Mostly Cloudy
6:53 AM 28.0 °F 24.2 °F 27.0 °F 96% 29.76 in 10.0 mi SSW 3.5 mph - N/A   Mostly Cloudy
7:48 AM 26.6 °F 20.0 °F 24.8 °F 93% 29.71 in 10.0 mi SSW 5.8 mph - N/A   Scattered Clouds
7:53 AM 26.1 °F 19.4 °F 25.0 °F 96% 29.76 in 10.0 mi SSW 5.8 mph - N/A   Partly Cloudy
8:53 AM 30.0 °F 23.2 °F 28.0 °F 92% 29.75 in 10.0 mi South 6.9 mph - N/A   Clear
9:53 AM 33.1 °F 25.5 °F 30.0 °F 89% 29.74 in 10.0 mi South 9.2 mph - N/A   Clear
10:53 AM 37.0 °F 28.9 °F 30.9 °F 79% 29.72 in 10.0 mi South 12.7 mph - N/A   Clear
11:53 AM 39.9 °F 32.1 °F 30.9 °F 70% 29.69 in 10.0 mi SSW 13.8 mph - N/A   Clear
12:53 PM 37.9 °F 30.0 °F 32.0 °F 79% 29.67 in 10.0 mi South 12.7 mph - N/A   Clear
1:53 PM 39.0 °F 31.4 °F 30.9 °F 73% 29.63 in 10.0 mi South 12.7 mph - N/A   Clear
2:53 PM 42.1 °F 36.6 °F 30.9 °F 65% 29.60 in 10.0 mi South 9.2 mph - N/A   Clear
3:53 PM 43.0 °F 38.2 °F 30.0 °F 60% 29.58 in 10.0 mi South 8.1 mph - N/A   Clear
4:53 PM 39.9 °F 35.1 °F 30.0 °F 68% 29.57 in 10.0 mi South 6.9 mph - N/A   Clear
5:53 PM 39.0 °F 33.4 °F 30.0 °F 70% 29.56 in 10.0 mi South 8.1 mph - N/A   Clear
6:53 PM 37.0 °F 31.0 °F 30.9 °F 79% 29.55 in 10.0 mi South 8.1 mph - N/A   Clear
7:53 PM 37.0 °F 31.6 °F 32.0 °F 82% 29.54 in 10.0 mi South 6.9 mph - N/A   Mostly Cloudy
8:53 PM 39.9 °F 35.8 °F 37.0 °F 89% 29.52 in 10.0 mi South 5.8 mph - 0.00 in   Overcast
9:53 PM 41.0 °F 35.8 °F 37.0 °F 86% 29.49 in 10.0 mi South 8.1 mph - N/A   Overcast
10:53 PM 42.1 °F 36.6 °F 36.0 °F 79% 29.48 in 10.0 mi South 9.2 mph - N/A   Partly Cloudy
11:53 PM 42.1 °F 36.1 °F 35.1 °F 76% 29.46 in 10.0 mi South 10.4 mph 18.4 mph N/A   Overcast